• In Belarus
  • List of Countries
  • For 7 days
  • Water Temperature
  • Weather Map
  • Weather Widgets
  • user-avatar
    Login

    Hourly Weather San Miguel de Tucumán

    Today, 17 October, Thursday

    Time Temperature Precipitation Wind Pressure Humidity
    00:00 +13°C° 0 mm 0 mps 719 mmHg 80%
    01:00 +12°C° 0 mm 0 mps 719 mmHg 82%
    02:00 +12°C° 0 mm 0 mps 719 mmHg 85%
    03:00 +12°C° 0 mm 1 mps 719 mmHg 86%
    04:00 +12°C° 0 mm 1 mps 719 mmHg 88%
    05:00 +12°C° 0 mm 1 mps 719 mmHg 90%
    06:00 +13°C° 0 mm 1 mps 720 mmHg 83%
    07:00 +15°C° 0 mm 1 mps 720 mmHg 77%
    08:00 +18°C° 0 mm 1 mps 721 mmHg 70%
    09:00 +19°C° 0 mm 2 mps 721 mmHg 63%
    10:00 +21°C° 0 mm 2 mps 721 mmHg 57%
    11:00 +24°C° 0 mm 2 mps 721 mmHg 50%
    12:00 +25°C° 0 mm 2 mps 720 mmHg 47%
    13:00 +26°C° 0 mm 2 mps 719 mmHg 45%
    14:00 +27°C° 0 mm 2 mps 719 mmHg 42%
    15:00 +26°C° 0 mm 2 mps 719 mmHg 43%
    16:00 +26°C° 0 mm 2 mps 718 mmHg 43%
    17:00 +26°C° 0 mm 2 mps 718 mmHg 44%
    18:00 +24°C° 0 mm 1 mps 719 mmHg 50%
    19:00 +22°C° 0 mm 1 mps 719 mmHg 56%
    20:00 +20°C° 0 mm 1 mps 720 mmHg 62%
    21:00 +20°C° 0 mm 1 mps 721 mmHg 64%
    22:00 +19°C° 0 mm 1 mps 721 mmHg 67%
    23:00 +19°C° 0 mm 1 mps 721 mmHg 69%

    Tomorrow, 18 October, Friday

    Time Temperature Precipitation Wind Pressure Humidity
    00:00 +18°C° 0 mm 1 mps 721 mmHg 72%
    01:00 +18°C° 0 mm 1 mps 721 mmHg 74%
    02:00 +16°C° 0 mm 1 mps 720 mmHg 77%
    03:00 +16°C° 0 mm 1 mps 721 mmHg 78%
    04:00 +16°C° 0 mm 1 mps 721 mmHg 79%
    05:00 +16°C° 0 mm 1 mps 721 mmHg 80%
    06:00 +18°C° 0 mm 1 mps 722 mmHg 76%
    07:00 +19°C° 0 mm 1 mps 722 mmHg 71%
    08:00 +21°C° 0 mm 1 mps 723 mmHg 67%
    09:00 +22°C° 0 mm 1 mps 723 mmHg 62%
    10:00 +24°C° 0 mm 2 mps 723 mmHg 57%
    11:00 +25°C° 0 mm 2 mps 723 mmHg 52%
    12:00 +25°C° 0 mm 2 mps 722 mmHg 52%
    13:00 +25°C° 0 mm 2 mps 722 mmHg 52%
    14:00 +25°C° 0 mm 2 mps 721 mmHg 52%
    15:00 +24°C° 0 mm 2 mps 721 mmHg 56%
    16:00 +24°C° 0 mm 2 mps 720 mmHg 59%
    17:00 +23°C° 0 mm 2 mps 720 mmHg 63%
    18:00 +22°C° 0 mm 1 mps 721 mmHg 67%
    19:00 +22°C° 0 mm 1 mps 721 mmHg 71%
    20:00 +21°C° 0 mm 1 mps 722 mmHg 75%
    21:00 +21°C° 0 mm 1 mps 722 mmHg 76%
    22:00 +19°C° 0 mm 0 mps 722 mmHg 77%
    23:00 +18°C° 0 mm 0 mps 723 mmHg 78%

    Day after tomorrow, 19 October, Saturday

    Time Temperature Precipitation Wind Pressure Humidity
    00:00 +18°C° 0.1 mm 0 mps 723 mmHg 80%
    01:00 +18°C° 0.1 mm 0 mps 723 mmHg 81%
    02:00 +18°C° 0.1 mm 0 mps 722 mmHg 83%
    03:00 +18°C° 0.1 mm 0 mps 722 mmHg 84%
    04:00 +17°C° 0.1 mm 0 mps 722 mmHg 85%
    05:00 +17°C° 0.1 mm 0 mps 722 mmHg 86%
    06:00 +18°C° 0.1 mm 0 mps 723 mmHg 84%
    07:00 +20°C° 0.1 mm 1 mps 723 mmHg 83%
    08:00 +20°C° 0.1 mm 1 mps 723 mmHg 81%
    09:00 +21°C° 0.3 mm 1 mps 723 mmHg 80%
    10:00 +20°C° 0.3 mm 2 mps 723 mmHg 80%
    11:00 +21°C° 0.3 mm 3 mps 722 mmHg 79%
    12:00 +21°C° 0.4 mm 3 mps 722 mmHg 79%
    13:00 +21°C° 0.4 mm 4 mps 721 mmHg 78%
    14:00 +21°C° 0.4 mm 4 mps 721 mmHg 78%
    15:00 +19°C° 0.5 mm 3 mps 720 mmHg 81%
    16:00 +18°C° 0.5 mm 3 mps 720 mmHg 83%
    17:00 +17°C° 0.5 mm 2 mps 719 mmHg 85%
    18:00 +17°C° 0.1 mm 2 mps 720 mmHg 85%
    19:00 +16°C° 0.1 mm 2 mps 720 mmHg 86%
    20:00 +16°C° 0.1 mm 1 mps 720 mmHg 86%
    21:00 +15°C° 0 mm 1 mps 720 mmHg 86%
    22:00 +15°C° 0 mm 1 mps 720 mmHg 85%
    23:00 +15°C° 0 mm 1 mps 720 mmHg 85%

    20 October, Sunday

    Time Temperature Precipitation Wind Pressure Humidity
    00:00 +15°C° 0 mm 1 mps 720 mmHg 83%
    01:00 +14°C° 0 mm 1 mps 719 mmHg 81%
    02:00 +14°C° 0 mm 1 mps 719 mmHg 80%
    03:00 +14°C° 0 mm 1 mps 719 mmHg 80%
    04:00 +13°C° 0 mm 0 mps 719 mmHg 80%
    05:00 +12°C° 0 mm 0 mps 719 mmHg 80%
    06:00 +14°C° 0 mm 0 mps 719 mmHg 75%
    07:00 +15°C° 0 mm 0 mps 720 mmHg 70%
    08:00 +16°C° 0 mm 0 mps 720 mmHg 66%
    09:00 +20°C° 0 mm 1 mps 720 mmHg 60%
    10:00 +21°C° 0 mm 2 mps 720 mmHg 55%
    11:00 +23°C° 0 mm 2 mps 720 mmHg 49%
    12:00 +24°C° 0 mm 3 mps 720 mmHg 48%
    13:00 +25°C° 0 mm 3 mps 720 mmHg 46%
    14:00 +26°C° 0 mm 3 mps 719 mmHg 44%
    15:00 +25°C° 0 mm 3 mps 719 mmHg 46%
    16:00 +25°C° 0 mm 3 mps 719 mmHg 48%
    17:00 +24°C° 0 mm 3 mps 719 mmHg 50%
    18:00 +22°C° 0 mm 3 mps 719 mmHg 56%
    19:00 +20°C° 0 mm 2 mps 720 mmHg 62%
    20:00 +19°C° 0 mm 2 mps 721 mmHg 68%
    21:00 +20°C° 0 mm 1 mps 721 mmHg 70%
    22:00 +19°C° 0 mm 1 mps 721 mmHg 73%
    23:00 +18°C° 0 mm 1 mps 722 mmHg 76%

    21 October, Monday

    Time Temperature Precipitation Wind Pressure Humidity
    00:00 +18°C° 0 mm 1 mps 721 mmHg 77%
    01:00 +16°C° 0 mm 0 mps 721 mmHg 78%
    02:00 +16°C° 0 mm 0 mps 721 mmHg 79%
    03:00 +15°C° 0 mm 0 mps 721 mmHg 81%
    04:00 +15°C° 0 mm 0 mps 721 mmHg 82%
    05:00 +15°C° 0 mm 0 mps 721 mmHg 83%
    06:00 +16°C° 0 mm 0 mps 721 mmHg 76%
    07:00 +18°C° 0 mm 0 mps 722 mmHg 69%
    08:00 +20°C° 0 mm 0 mps 722 mmHg 62%
    09:00 +24°C° 0 mm 1 mps 722 mmHg 53%
    10:00 +26°C° 0 mm 2 mps 723 mmHg 44%
    11:00 +27°C° 0 mm 2 mps 723 mmHg 36%
    12:00 +28°C° 0 mm 3 mps 722 mmHg 32%
    13:00 +29°C° 0 mm 3 mps 721 mmHg 29%
    14:00 +29°C° 0 mm 3 mps 721 mmHg 25%
    15:00 +29°C° 0 mm 3 mps 720 mmHg 26%
    16:00 +28°C° 0 mm 3 mps 720 mmHg 28%
    17:00 +28°C° 0 mm 3 mps 720 mmHg 29%
    18:00 +26°C° 0 mm 2 mps 720 mmHg 34%
    19:00 +23°C° 0 mm 2 mps 721 mmHg 40%
    20:00 +21°C° 0 mm 1 mps 721 mmHg 46%
    21:00 +21°C° 0 mm 1 mps 722 mmHg 47%
    22:00 +20°C° 0 mm 1 mps 722 mmHg 49%
    23:00 +20°C° 0 mm 1 mps 722 mmHg 51%

    22 October, Tuesday

    Time Temperature Precipitation Wind Pressure Humidity
    00:00 +19°C° 0 mm 1 mps 722 mmHg 54%
    01:00 +18°C° 0 mm 1 mps 722 mmHg 58%
    02:00 +16°C° 0 mm 1 mps 721 mmHg 62%
    03:00 +16°C° 0 mm 1 mps 721 mmHg 65%
    04:00 +15°C° 0 mm 1 mps 722 mmHg 69%
    05:00 +15°C° 0 mm 1 mps 722 mmHg 72%
    06:00 +16°C° 0 mm 1 mps 722 mmHg 66%
    07:00 +19°C° 0 mm 1 mps 722 mmHg 61%
    08:00 +21°C° 0 mm 1 mps 722 mmHg 55%
    09:00 +23°C° 0 mm 2 mps 722 mmHg 50%
    10:00 +25°C° 0 mm 2 mps 722 mmHg 45%
    11:00 +27°C° 0 mm 2 mps 722 mmHg 39%
    12:00 +27°C° 0 mm 2 mps 721 mmHg 39%
    13:00 +27°C° 0 mm 3 mps 720 mmHg 39%
    14:00 +28°C° 0 mm 3 mps 719 mmHg 39%
    15:00 +27°C° 0 mm 3 mps 719 mmHg 40%
    16:00 +27°C° 0 mm 2 mps 718 mmHg 41%
    17:00 +27°C° 0 mm 2 mps 718 mmHg 42%
    18:00 +26°C° 0 mm 2 mps 718 mmHg 44%
    19:00 +25°C° 0 mm 1 mps 719 mmHg 47%
    20:00 +24°C° 0 mm 1 mps 719 mmHg 50%
    21:00 +23°C° 0 mm 1 mps 720 mmHg 51%
    22:00 +21°C° 0 mm 2 mps 720 mmHg 52%
    23:00 +20°C° 0 mm 2 mps 720 mmHg 54%
    Show more